Weather History for KHON - May, 2014

Change the Weather History Date:

Wednesday, May 28, 2014

  Actual Average Record
Temperature  
Mean Temperature 69 °F 62 °F  
Max Temperature 86 °F 74 °F 104 °F (1934)
Min Temperature 51 °F 50 °F 28 °F (1947)
Degree Days  
Heating Degree Days 0 5  
Month to date heating degree days 274 231  
Since 1 July heating degree days 8287 7609  
Cooling Degree Days 4 1  
Month to date cooling degree days 37 25  
Year to date cooling degree days 37 29  
Growing Degree Days 18 (Base 50)    
Moisture  
Dew Point 56 °F    
Average Humidity 70    
Maximum Humidity 100    
Minimum Humidity 40    
Precipitation  
Precipitation 0.00 in 0.11 in 1.68 in (1885)
Month to date precipitation 1.28 2.76  
Year to date precipitation 3.72 7.63  
Snow  
Snow 0.00 in 0.00 in T in (1947)
Month to date snowfall 0.0 0.1  
Since 1 July snowfall 28.6 44.0  
Snow Depth 0.00 in    
Sea Level Pressure  
Sea Level Pressure 30.00 in    
Wind  
Wind Speed 6 mph (ESE)    
Max Wind Speed 14 mph    
Max Gust Speed 18 mph    
Visibility 5 miles    
Events Fog    
T = Trace of Precipitation, MM = Missing Value Source: NWS Daily Summary

Daily Weather History Graph

Daily Weather History Graph

Search for Another Location

Airport or City:

Trip Planner

Search our weather history database for the weather conditions in past years. The results will help you decide how hot, cold, wet, or windy it might be!

Date:

Astronomy

May. 28, 2014 Rise Set
Actual Time 5:54 AM CDT 9:06 PM CDT
Civil Twilight 5:18 AM CDT 9:42 PM CDT
Nautical Twilight 4:33 AM CDT 10:28 PM CDT
Astronomical Twilight 3:37 AM CDT 11:24 PM CDT
Moon 6:04 AM CDT (5/28) 9:04 PM CDT (5/28)
Length of Visible Light 16h 23m
Length of Day
15h 12m
Waning Crescent, 0% of the Moon is Illuminated
May 28
Waning Crescent
May 28
New
Jun 5
First Quarter
Jun 12
Full
Jun 19
Last Quarter

Hourly Weather History & Observations

Time (CDT) Temp. Heat Index Dew Point Humidity Pressure Visibility Wind Dir Wind Speed Gust Speed Precip Events Conditions
12:55 AM 59.0 °F - 55.9 °F 90% 29.98 in 10.0 mi Calm Calm - N/A   Clear
1:55 AM 57.0 °F - 55.0 °F 93% 29.98 in 7.0 mi Calm Calm - N/A   Clear
2:20 AM 55.9 °F - 55.0 °F 97% 29.98 in 0.8 mi Calm Calm - N/A   Clear
2:31 AM 55.9 °F - 55.0 °F 97% 29.98 in 2.0 mi Calm Calm - N/A   Clear
2:38 AM 54.0 °F - 53.1 °F 97% 29.99 in 10.0 mi Calm Calm - N/A   Clear
2:47 AM 55.0 °F - 53.1 °F 93% 29.99 in 2.5 mi Calm Calm - N/A   Partly Cloudy
2:55 AM 55.0 °F - 54.0 °F 96% 29.97 in 1.5 mi Calm Calm - N/A   Partly Cloudy
2:58 AM 55.0 °F - 54.0 °F 96% 29.99 in 0.8 mi Calm Calm - N/A   Mist
3:20 AM 54.0 °F - 54.0 °F 100% 29.99 in 1.0 mi Calm Calm - N/A   Clear
3:29 AM 54.0 °F - 53.1 °F 97% 29.99 in 3.0 mi Calm Calm - N/A   Clear
3:42 AM 55.0 °F - 54.0 °F 96% 29.99 in 2.5 mi Calm Calm - N/A   Clear
3:50 AM 53.6 °F - 53.6 °F 100% 29.99 in 3.0 mi Calm Calm - N/A   Clear
3:55 AM 55.9 °F - 54.0 °F 93% 29.97 in 3.0 mi Calm Calm - N/A   Clear
4:14 AM 54.0 °F - 53.1 °F 97% 30.00 in 1.5 mi Calm Calm - N/A   Clear
4:24 AM 53.1 °F - 53.1 °F 100% 29.99 in 4.0 mi Calm Calm - N/A   Clear
4:38 AM 54.0 °F - 53.1 °F 97% 30.00 in 1.8 mi Calm Calm - N/A   Clear
4:55 AM 54.0 °F - 53.1 °F 97% 29.99 in 0.5 mi East 3.5 mph - N/A Fog Fog
5:03 AM 53.6 °F - 53.6 °F 100% 30.01 in 0.8 mi Calm Calm - N/A   Mist
5:06 AM 54.0 °F - 54.0 °F 100% 30.01 in 1.2 mi Calm Calm - N/A   Partly Cloudy
5:09 AM 55.0 °F - 54.0 °F 96% 30.01 in 3.0 mi NNE 3.5 mph - N/A   Clear
5:43 AM 55.0 °F - 54.0 °F 96% 30.01 in 1.8 mi East 4.6 mph - N/A   Clear
5:55 AM 55.0 °F - 55.0 °F 100% 30.00 in 2.0 mi Calm Calm - N/A   Clear
5:58 AM 54.0 °F - 54.0 °F 100% 30.01 in 0.8 mi Calm Calm - N/A   Clear
6:08 AM 53.1 °F - 53.1 °F 100% 30.02 in 0.2 mi Calm Calm - N/A Fog Fog
6:20 AM 52.0 °F - 52.0 °F 100% 30.02 in 0.2 mi Calm Calm - N/A Fog Fog
6:32 AM 53.1 °F - 52.0 °F 96% 30.02 in 1.0 mi Calm Calm - N/A   Mist
6:34 AM 53.1 °F - 52.0 °F 96% 30.02 in 2.0 mi WNW 3.5 mph - N/A   Partly Cloudy
6:36 AM 53.1 °F - 52.0 °F 96% 30.02 in 0.8 mi WNW 3.5 mph - N/A   Mist
6:44 AM 53.1 °F - 52.0 °F 96% 30.02 in 0.2 mi Calm Calm - N/A Fog Fog
6:51 AM 53.6 °F - 53.6 °F 100% 30.02 in 0.2 mi West 4.6 mph - N/A Fog Fog
6:55 AM 54.0 °F - 53.1 °F 97% 30.02 in 0.2 mi West 3.5 mph - N/A Fog Fog
7:09 AM 55.0 °F - 54.0 °F 96% 30.03 in 0.8 mi Calm Calm - N/A   Mist
7:13 AM 55.9 °F - 55.0 °F 97% 30.03 in 2.0 mi Calm Calm - N/A   Mostly Cloudy
7:22 AM 57.0 °F - 55.9 °F 96% 30.03 in 4.0 mi Calm Calm - N/A   Scattered Clouds
8:55 AM 68.0 °F - 63.0 °F 84% 30.02 in 9.0 mi East 4.6 mph - N/A   Clear
9:55 AM 72.0 °F - 62.1 °F 71% 30.03 in 10.0 mi SE 4.6 mph - N/A   Clear
10:55 AM 75.9 °F - 64.0 °F 67% 30.02 in 10.0 mi East 9.2 mph - N/A   Clear
11:55 AM 79.0 °F - 62.1 °F 56% 30.02 in 10.0 mi SSE 9.2 mph - N/A   Clear
1:55 PM 82.9 °F 83.3 °F 61.0 °F 47% 30.01 in 10.0 mi SE 8.1 mph 18.4 mph N/A   Clear
2:55 PM 84.0 °F 84.0 °F 60.1 °F 44% 30.01 in 10.0 mi SE 9.2 mph - N/A   Clear
3:55 PM 84.9 °F 84.4 °F 59.0 °F 41% 29.99 in 10.0 mi SE 8.1 mph - N/A   Clear
5:55 PM 84.2 °F 83.5 °F 57.2 °F 40% 29.99 in 10.0 mi ESE 11.5 mph - N/A   Clear
6:55 PM 84.0 °F 83.3 °F 57.0 °F 40% 29.97 in 10.0 mi ESE 10.4 mph - N/A   Clear
7:55 PM 81.0 °F 81.0 °F 57.0 °F 44% 29.96 in 10.0 mi ESE 4.6 mph - N/A   Clear
8:55 PM 75.9 °F - 59.0 °F 56% 29.96 in 10.0 mi ESE 5.8 mph - N/A   Clear
9:55 PM 75.2 °F - 57.2 °F 53% 30.00 in 10.0 mi SE 4.6 mph - N/A   Clear
10:55 PM 73.0 °F - 59.0 °F 61% 29.99 in 10.0 mi ESE 9.2 mph - N/A   Clear
11:55 PM 70.0 °F - 57.9 °F 65% 29.98 in 10.0 mi SE 5.8 mph - N/A   Clear